Location: Unspecified
(0.0000°N, 0.0000°E)
Time: 06:28:34
(UTC+00:00)

O/OREOS (USA 219) - Visible Passes

Search period start: 30 November 2022 00:00
Search period end: 10 December 2022 00:00
Orbit: 621 x 646 km, 72.0° (Epoch: 22 May)

Date Brightness Start Highest point End Pass type
(mag) Time Alt. Az. Time Alt. Az. Time Alt. Az.
01 Dec ? 04:22:13 10° SSE 04:25:26 19° ESE 04:28:39 10° ENE visible
01 Dec ? 18:14:59 10° W 18:15:28 10° WSW 18:15:58 10° WSW visible
02 Dec ? 04:43:01 10° S 04:47:26 59° ESE 04:51:48 10° NNE visible
03 Dec ? 05:05:08 10° SSW 05:09:23 43° WNW 05:13:37 10° N visible
04 Dec ? 03:48:44 10° SSE 03:52:15 22° ESE 03:55:43 10° NE visible
05 Dec ? 04:09:46 10° S 04:14:13 69° ESE 04:18:38 10° NNE visible
06 Dec ? 04:32:03 10° SW 04:36:11 37° WNW 04:40:17 10° N visible
07 Dec ? 03:15:18 10° SSE 03:16:57 18° SE 03:16:57 18° SE visible
